{"data":{"norad_id":61019,"intl_designator":"2024-159J","name":"GEESAT-3 09","alt_names":[],"object_type":"PAYLOAD","status":"ACTIVE","operator":null,"country":"PRC","launch_date":"2024-09-05","launch_site_code":"TAISC","launch_vehicle":null,"mission":null,"orbit_class":"UNKNOWN","rcs_meters":null,"size_class":null,"mass_kg":null,"dimensions":null,"purposes":[],"wikipedia_slug":null,"has_3d_model":false,"image_url":null,"decayed_at":null,"tle_current":{"epoch":"2026-05-25T03:58:31.768608Z","epoch_age_seconds":56802,"freshness":"FRESH","line1":"1 61019U 24159J   26145.16564547  .00001303  00000+0  18104-3 0  9997","line2":"2 61019  49.9965 189.4759 0022642 330.6712  29.2954 14.84155695 93351","mean_motion":14.84155695,"eccentricity":0.0022642,"inclination_deg":49.9965,"raan_deg":189.4759,"arg_perigee_deg":330.6712,"mean_anomaly_deg":29.2954,"bstar":0.00018104,"rev_number":9335,"period_min":97.024860993442,"perigee_km":600.40058053535,"apogee_km":632.07390485597,"semimajor_km":6994.3742426957,"source":"CELESTRAK","updated_at":"2026-05-25T13:38:02.278307Z"}}}